Content
SEND FEEDBACK

Daily
Averages
Monthly
Summary
United States of America

ANN ARBOR, MICHIGAN


Home > North America > United States > Michigan
Elevation: 231 meters     Latitude: 42 17N     Longitude: 083 43W

WEATHER
 
SELECT A DAY
Number of Records: 203,295;   Date Range: 1/1/95 - 7/26/14
 
SHARE

PRINT THIS DATA

[ ← Previous Day ]
WEATHER ALMANAC - 21 NOVEMBER, 2013
[ Next Day → ]
[ °F ]   °C
Weather ElementAverageHighLow
Temperature6.6 °C8.3 °C (1:53 pm)3.9 °C (1:53 am)
Dewpoint3.9 °C6.1 °C (4:53 pm)-2.2 °C (1:53 am)
Humidity83.5 %96 % (5:53 pm)63 % (2:53 am)
Barometer1023.7 hPa1025.7 hPa (10:53 am)1021.7 hPa (11:21 pm)
Wind Speed10.1 km/h22.2 km/h (9:53 am)
Wind Gust29.6 km/h (9:53 am)
Weather ElementAverage
Visibility11.7 km
Wind DirectionSSE (165.3 °)

Weather ElementTotal
Precipitation8.13 mm
Heating Degree Days12.3 (Base 18.3)
Averaged from 32 records on 21 November, 2013
WEATHER CONDITIONS BREAKOUT
WIND DIRECTION BREAKOUT
WEATHER BY HOUR - 21 NOVEMBER, 2013
[ °F ]   °C
Local TimeTemperatureDewpointHumidityBarometerVisibilityWind DirectionWind SpeedGust SpeedPrecipitationEventsConditions
1:53 AM3.9 °C-2.2 °C65 %1025.4 hPa16.1 kmCalmOvercast
2:53 AM4.4 °C-2.2 °C63 %1025.4 hPa16.1 kmSouth (170°)7.4 km/hOvercast
3:53 AM5 °C-1.1 °C65 %1025.4 hPa16.1 kmSouth (190°)7.4 km/hOvercast
4:53 AM4.4 °C-0.6 °C70 %1025.1 hPa16.1 kmSE (130°)5.6 km/hOvercast
5:53 AM5 °C-0.6 °C67 %1025.1 hPa16.1 kmSouth (170°)5.6 km/hOvercast
6:53 AM5.6 °C-0.6 °C65 %1024.7 hPa16.1 kmSouth (170°)9.3 km/hOvercast
7:53 AM6.1 °C0 °C65 %1024.7 hPa16.1 kmSouth (170°)13 km/hOvercast
8:53 AM6.1 °C0.6 °C68 %1025.1 hPa16.1 kmSouth (190°)13 km/hOvercast
9:53 AM6.7 °C2.2 °C73 %1025.4 hPa16.1 kmSSW (200°)22.2 km/h29.6 km/hOvercast
10:53 AM6.1 °C3.9 °C86 %1025.7 hPa16.1 kmSSW (200°)14.8 km/hOvercast
11:41 AM7 °C4 °C81 %1024.4 hPa16.1 kmSSW (200°)14.8 km/hOvercast
11:53 AM7.2 °C4.4 °C82 %1025.1 hPa16.1 kmSSW (200°)16.7 km/hOvercast
12:44 PM7 °C5 °C87 %1024 hPa16.1 kmSSW (210°)18.5 km/hOvercast
12:53 PM7.8 °C5 °C83 %1024.4 hPa16.1 kmSouth (190°)14.8 km/hOvercast
1:00 PM8 °C6 °C87 %1023.7 hPa16.1 kmSouth (190°)13 km/hOvercast
1:53 PM8.3 °C5.6 °C83 %1023.4 hPa16.1 kmSouth (190°)16.7 km/hOvercast
2:37 PM8 °C6 °C87 %1022.4 hPa16.1 kmSouth (190°)14.8 km/hOvercast
2:53 PM8.3 °C5.6 °C83 %1023.4 hPa16.1 kmSSW (200°)11.1 km/hOvercast
3:53 PM7.8 °C5.6 °C86 %1023.4 hPa16.1 kmSouth (190°)13 km/hOvercast
4:29 PM7 °C6 °C93 %1023.4 hPa8 kmSouth (190°)7.4 km/h0 mmRainLight Rain
4:53 PM7.2 °C6.1 °C93 %1024 hPa4.8 kmSouth (190°)9.3 km/h0.51 mmRainLight Rain
5:53 PM6.7 °C6.1 °C96 %1023.7 hPa6.4 kmSouth (170°)9.3 km/h1.27 mmRainLight Rain
6:53 PM6.7 °C5.6 °C93 %1023.4 hPa4.8 kmSouth (190°)9.3 km/h0.76 mmRainLight Rain
7:14 PM7 °C6 °C93 %1022.7 hPa6.4 kmSouth (190°)13 km/h0.25 mmRainLight Rain
7:53 PM6.7 °C6.1 °C96 %1023.7 hPa4.8 kmSSW (200°)11.1 km/h0.76 mmRainLight Rain
8:53 PM6.7 °C6.1 °C96 %1023.4 hPa4.8 kmSSW (200°)13 km/h1.78 mmRainLight Rain
9:53 PM6.7 °C6.1 °C96 %1022.7 hPa6.4 kmSSW (210°)7.4 km/h1.02 mmRainLight Rain
10:53 PM6.7 °C6.1 °C96 %1022.4 hPa4.8 kmCalm0.76 mmRainLight Rain
11:21 PM7 °C6 °C93 %1021.7 hPa4 kmCalm0.25 mmRainLight Rain
11:35 PM7 °C6 °C93 %1021.7 hPa4.8 kmCalm0.25 mmRainLight Rain
11:44 PM7 °C6 °C93 %1021.7 hPa4 kmSSW (200°)5.6 km/h0.25 mmRainLight Rain
11:53 PM6.7 °C6.1 °C96 %1022 hPa4 kmSSW (200°)7.4 km/h0.25 mmRainLight Rain
Hourly data recorded from KARB, located 0 kilometers away from Ann Arbor, Michigan







STORIES FROM OUR PARTNERS